FW5431 Weather Reports


Display with metric or nautical units.
time (UTC)temp
F
wind
direction
speed
MPH
gust
MPH
rain 1hr
in
rain 24hr
in
rain mn
in
humidity
%
barometer
mb
20260903160104 76 72 3.0 6.0 0.00 0.00 0.00 100 1014.0
20260903154558 75 172 1.0 6.0 0.00 0.00 0.00 100 1014.2
20260903153057 75 101 1.0 5.0 0.00 0.00 0.00 100 1014.6
20260903151559 75 24 1.0 9.0 0.00 0.00 0.00 100 1015.0
20260903150116 74 71 2.0 8.0 0.00 0.00 0.00 100 1015.3
20260903144557 74 46 3.0 8.0 0.00 0.00 0.00 100 1015.7
20260903143101 74 54 4.0 11.0 0.00 0.00 0.00 100 1016.1
20260903141600 74 4 3.0 6.0 0.00 0.00 0.00 100 1016.3
20260903140057 72 25 2.0 8.0 0.00 0.00 0.00 100 1016.5
20260903140000 72 23 1.0 8.0 0.00 0.00 0.00 100 1016.5
20260903134556 72 77 3.0 6.0 0.00 0.00 0.00 100 1016.6
20260903133059 71 42 3.0 6.0 0.00 0.00 0.00 100 1016.7
20260903131557 71 92 4.0 6.0 0.00 0.00 0.00 100 1016.9
20260903130057 70 41 1.0 8.0 0.00 0.00 0.00 100 1017.1
20260903124603 70 53 3.0 6.0 0.00 0.00 0.00 100 1017.2
20260903123057 70 75 1.0 5.0 0.00 0.00 0.00 100 1017.1
20260903121556 69 72 2.0 4.0 0.00 0.00 0.00 100 1017.1
20260903120057 67 86 2.0 5.0 0.00 0.00 0.00 100 1017.1
20260903114616 67 84 1.0 4.0 0.00 0.00 0.00 100 1017.2
20260903113103 67 46 1.0 3.0 0.00 0.00 0.00 100 1017.2
20260903111616 65 245 0.0 2.0 0.00 0.00 0.00 100 1017.1
20260903110056 63 246 0.0 0.0 0.00 0.00 0.00 100 1017.1
20260903104606 62 246 0.0 0.0 0.00 0.00 0.00 100 1017.1
20260903103105 62 246 0.0 0.0 0.00 0.00 0.00 100 1017.3
20260903101600 61 246 0.0 0.0 0.00 0.00 0.00 100 1017.3
20260903100100 61 245 0.0 0.0 0.00 0.00 0.00 100 1017.2
20260903094601 61 245 0.0 0.0 0.00 0.00 0.00 100 1017.1
20260903093125 61 244 0.0 0.0 0.00 0.00 0.00 100 1017.1
20260903091557 61 244 0.0 0.0 0.00 0.00 0.00 100 1017.1
20260903090057 61 245 0.0 0.0 0.00 0.00 0.00 100 1016.9
20260903084557 61 245 0.0 0.0 0.00 0.00 0.00 100 1016.9
20260903083059 61 245 1.0 2.0 0.00 0.00 0.00 100 1016.8
20260903081557 61 245 0.0 2.0 0.00 0.00 0.00 100 1016.7
20260903080056 61 245 1.0 2.0 0.00 0.00 0.00 100 1016.9
20260903074556 61 245 0.0 1.0 0.00 0.00 0.00 100 1016.9
20260903073056 61 245 1.0 3.0 0.00 0.00 0.00 100 1017.0
20260903071626 61 249 1.0 5.0 0.00 0.00 0.00 100 1017.1
20260903070103 61 229 0.0 3.0 0.00 0.00 0.00 100 1017.3
20260903064605 61 229 0.0 2.0 0.00 0.00 0.00 100 1017.3
20260903063103 61 229 1.0 2.0 0.00 0.00 0.00 100 1017.4
20260903061602 61 229 1.0 3.0 0.00 0.00 0.00 100 1017.6
20260903060056 61 234 2.0 4.0 0.00 0.00 0.00 100 1017.7
20260903054556 61 239 1.0 3.0 0.00 0.00 0.00 100 1017.9
20260903053056 61 238 0.0 2.0 0.00 0.00 0.00 100 1018.0
20260903051557 61 238 1.0 3.0 0.00 0.00 0.00 100 1018.3
20260903050112 61 250 0.0 2.0 0.00 0.00 0.00 100 1018.3
20260903044603 61 250 0.0 2.0 0.00 0.00 0.00 100 1018.4
20260903043056 61 249 1.0 3.0 0.00 0.00 0.00 100 1018.6
20260903041608 61 251 1.0 3.0 0.00 0.00 0.00 100 1018.7
20260903040105 61 251 1.0 3.0 0.00 0.00 0.00 100 1018.9
20260903034607 62 249 0.0 2.0 0.00 0.00 0.00 100 1019.0
20260903033057 62 249 0.0 2.0 0.00 0.00 0.00 100 1019.2
20260903031557 62 249 0.0 3.0 0.00 0.00 0.00 100 1019.1
20260903030057 62 250 0.0 0.0 0.00 0.00 0.00 100 1019.2
20260903030002 62 250 0.0 0.0 0.00 0.00 0.00 100 1019.2
20260903024557 62 250 0.0 1.0 0.00 0.00 0.00 100 1019.3
20260903023057 62 250 1.0 3.0 0.00 0.00 0.00 100 1019.4
20260903021558 62 250 1.0 3.0 0.00 0.00 0.00 100 1019.5
20260903020059 62 250 0.0 3.0 0.00 0.00 0.00 100 1019.6
20260903014623 62 248 0.0 3.0 0.00 0.00 0.00 100 1019.7
20260903013107 62 218 2.0 3.0 0.00 0.00 0.00 100 1019.7
20260903011557 62 82 0.0 1.0 0.00 0.00 0.00 100 1019.9
20260903010057 62 82 0.0 2.0 0.00 0.00 0.00 100 1019.9
20260903004600 63 82 0.0 1.0 0.00 0.00 0.00 100 1019.9
20260903003112 63 82 0.0 2.0 0.00 0.00 0.00 100 1019.8
20260903001557 63 82 0.0 1.0 0.00 0.00 0.00 100 1019.7
20260903000107 63 82 0.0 1.0 0.00 0.00 0.00 100 1019.8
20260903000001 63 82 0.0 1.0 0.00 0.00 0.00 100 1019.8
20260902234604 64 82 1.0 2.0 0.00 0.00 0.00 100 1019.8
20260902233057 64 82 1.0 3.0 0.00 0.00 0.00 100 1019.7
20260902231557 64 83 1.0 4.0 0.00 0.00 0.00 100 1019.7
20260902230110 64 73 1.0 4.0 0.00 0.00 0.00 100 1019.6
20260902224612 64 74 4.0 8.0 0.00 0.00 0.00 100 1019.4
20260902223111 65 96 2.0 3.0 0.00 0.00 0.00 100 1019.4
20260902221605 65 103 2.0 6.0 0.00 0.00 0.00 100 1019.3
20260902220057 65 43 3.0 7.0 0.00 0.00 0.00 100 1019.2
20260902214620 65 74 1.0 6.0 0.00 0.00 0.00 100 1018.9
20260902213057 66 96 3.0 9.0 0.00 0.00 0.00 100 1018.7
20260902211557 66 17 1.0 6.0 0.00 0.00 0.00 100 1018.7
20260902210057 67 70 2.0 12.0 0.00 0.00 0.00 100 1018.6
20260902204606 67 90 3.0 10.0 0.00 0.00 0.00 100 1018.4
20260902203057 68 88 4.0 7.0 0.00 0.00 0.00 100 1018.2
20260902201623 69 28 3.0 8.0 0.00 0.00 0.00 100 1018.1
20260902200057 69 77 4.0 10.0 0.00 0.00 0.00 100 1017.8
20260902194557 69 104 4.0 12.0 0.00 0.00 0.00 100 1017.8
20260902193100 70 43 7.0 12.0 0.00 0.00 0.00 100 1017.7
20260902191557 71 98 7.0 14.0 0.00 0.00 0.00 100 1017.5
20260902190057 72 99 5.0 9.0 0.00 0.00 0.00 100 1017.4
20260902184557 71 47 3.0 11.0 0.00 0.00 0.00 100 1017.4
20260902183057 71 34 5.0 10.0 0.00 0.00 0.00 100 1017.4
20260902181602 73 79 7.0 12.0 0.00 0.00 0.00 100 1017.4
20260902180058 73 355 5.0 13.0 0.00 0.00 0.00 100 1017.2
20260902174558 74 63 5.0 12.0 0.00 0.00 0.00 100 1017.2
20260902173057 74 27 4.0 12.0 0.00 0.00 0.00 100 1017.3
20260902171557 74 27 5.0 11.0 0.00 0.00 0.00 100 1017.4
20260902170100 75 344 3.0 7.0 0.00 0.00 0.00 100 1017.5
20260902164558 74 7 1.0 7.0 0.00 0.00 0.00 100 1017.7
20260902163057 74 56 3.0 7.0 0.00 0.00 0.00 100 1018.0
20260902161557 74 39 3.0 7.0 0.00 0.00 0.00 100 1018.3